Location: Focicchia
(42.2496°N, 9.2935°E)
Time: 10:03:34
(UTC+00:00)

NOSS 3-1 (C) - Pass Details

Date: 07 June 2020
Orbit: 752 x 1456 km, 63.4° (Epoch: 15 June)

Event Time Altitude Azimuth Distance (km) Brightness Sun altitude
Rises 01:08:48 0° 323° (NW) 3,989 7.1 -20.4°
Reaches altitude 10° 01:11:21 10° 324° (NW) 3,118 6.5 -20.2°
Maximum altitude 01:19:02 87° 236° (WSW) 1,331 4.1 -19.6°
Drops below altitude 10° 01:27:48 10° 149° (SSE) 3,523 6.1 -18.7°
Sets 01:30:50 0° 149° (SSE) 4,529 6.7 -18.5°
